Location: �mondeville
(49.4591°N, 1.3431°W)
Time: 09:33:13
(UTC+00:00)

CENTAUR R/B - Pass Details

Date: 22 October 2019
Orbit: 781 x 1407 km, 63.4° (Epoch: 10 November)

Event Time Altitude Azimuth Distance (km) Brightness Sun altitude
Exits shadow 03:56:31 40° 299° (WNW) 1,841 3.5 -26.6°
Maximum altitude 03:59:36 64° 236° (SW) 1,473 3.1 -26.1°
Drops below altitude 10° 04:08:07 10° 157° (SSE) 3,484 5.5 -24.7°
Sets 04:11:06 0° 155° (SSE) 4,462 6.1 -24.3°
